Date String (YYYY-MM-DD hh:mm:ss) UTC,Instrument flags,absolute air pressure of the measurement (hPa),sample flow rate (lpm),inlet stack bypass flow (lpm),air temperature of the measurement (°C),ambient temperature measured by the external sensor (°C),aerosol sample conditioner tube jacket temperature (°C),OPC LED temperature (°C),internal box temperature (°C),relative humidity of the measurement (%),span deviation,mass concentration of particles derived from Lorenz-Mie calculation of OPC scattering (μg/m³),mass concentration of particles derived from Lorenz-Mie calculation of OPC scattering (μg/m³),mass concentration of particles derived from Lorenz-Mie calculation of OPC scattering (μg/m³)
DateTimeUTC,F1_M11,P_M11,Q1_M11,Q2_M11,T1_M11,T2_M11,T3_M11,T4_M11,T5_M11,U1_M11,ZSPAN_M11,X0_M11,X2_M11,X1_M11
2024-03-04 01:00:00,SystemResetWarning,0815.6,5.00,000.00,018.6,017.9,000.0,026.9,020.2,14.7,0000.0,0003.27,0000.62,0000.25
2024-03-04 01:01:00,SystemResetWarning,0815.7,5.00,000.00,018.6,017.9,000.0,026.9,020.2,14.8,0000.0,0003.45,0000.62,0000.25
2024-03-04 01:02:00,SystemResetWarning,0815.8,5.00,000.00,018.6,017.9,000.0,026.9,020.2,14.8,0000.0,0003.61,0000.62,0000.25
2024-03-04 01:03:00,SystemResetWarning,0815.9,5.00,000.00,018.6,017.9,000.0,026.9,020.2,14.7,0000.0,0003.66,0000.63,0000.24
2024-03-04 01:04:00,SystemResetWarning,0815.9,5.00,000.00,018.6,017.9,000.0,026.9,020.2,14.7,0000.0,0002.33,0000.60,0000.24
2024-03-04 01:05:00,SystemResetWarning,0815.9,5.00,000.00,018.6,017.9,000.0,026.9,020.2,14.7,0000.0,0002.25,0000.60,0000.25
2024-03-04 01:06:00,SystemResetWarning,0816.0,5.00,000.00,018.6,017.9,000.0,026.9,020.2,14.8,0000.0,0002.25,0000.61,0000.25
2024-03-04 01:07:00,SystemResetWarning,0816.0,5.01,000.00,018.6,017.9,000.0,026.9,020.2,14.9,0000.0,0002.24,0000.62,0000.25
2024-03-04 01:08:00,SystemResetWarning,0816.0,5.00,000.00,018.6,017.9,000.0,026.9,020.2,14.9,0000.0,0002.61,0000.63,0000.24
2024-03-04 01:09:00,SystemResetWarning,0816.0,5.00,000.00,018.6,017.9,000.0,026.9,020.2,14.9,0000.0,0002.64,0000.64,0000.24
2024-03-04 01:10:00,SystemResetWarning,0816.1,5.00,000.00,018.6,017.9,000.0,026.9,020.2,15.0,0000.0,0002.63,0000.63,0000.24
2024-03-04 01:11:00,SystemResetWarning,0816.1,5.00,000.00,018.6,017.9,000.0,026.9,020.2,15.1,0000.0,0002.42,0000.66,0000.24
2024-03-04 01:12:00,SystemResetWarning,0816.1,4.99,000.00,018.6,017.9,000.0,026.9,020.2,15.1,0000.0,0002.39,0000.71,0000.24
2024-03-04 01:13:00,SystemResetWarning,0816.1,5.00,000.00,018.6,017.9,000.0,026.9,020.2,15.0,0000.0,0002.33,0000.68,0000.24
2024-03-04 01:14:00,SystemResetWarning,0816.2,5.00,000.00,018.6,017.9,000.0,026.9,020.2,15.1,0000.0,0002.15,0000.65,0000.24
2024-03-04 01:15:00,SystemResetWarning,0816.2,5.00,000.00,018.6,017.9,000.0,026.9,020.2,15.0,0000.0,0002.10,0000.62,0000.24
2024-03-04 01:16:00,SystemResetWarning,0816.2,5.00,000.00,018.6,017.9,000.0,026.9,020.2,15.0,0000.0,0002.02,0000.58,0000.23
2024-03-04 01:17:00,SystemResetWarning,0816.2,5.00,000.00,018.6,017.9,000.0,026.9,020.2,15.1,0000.0,0001.92,0000.53,0000.22
2024-03-04 01:18:00,SystemResetWarning,0816.2,5.00,000.00,018.6,017.9,000.0,026.9,020.2,15.1,0000.0,0001.96,0000.54,0000.22
2024-03-04 01:19:00,SystemResetWarning,0816.1,5.01,000.00,018.6,017.9,000.0,026.9,020.2,15.1,0000.0,0001.63,0000.53,0000.22
2024-03-04 01:20:00,SystemResetWarning,0816.1,5.00,000.00,018.6,017.9,000.0,026.9,020.2,15.0,0000.0,0001.42,0000.52,0000.22
2024-03-04 01:21:00,SystemResetWarning,0816.1,5.00,000.00,018.6,017.9,000.0,026.9,020.3,14.8,0000.0,0001.51,0000.56,0000.23
2024-03-04 01:22:00,SystemResetWarning,0816.1,5.01,000.00,018.6,017.9,000.0,026.9,020.2,14.8,0000.0,0001.42,0000.54,0000.23
2024-03-04 01:23:00,SystemResetWarning,0816.1,5.00,000.00,018.6,017.9,000.0,026.9,020.2,14.8,0000.0,0001.22,0000.50,0000.23
2024-03-04 01:24:00,SystemResetWarning,0816.1,5.00,000.00,018.6,017.9,000.0,026.9,020.2,14.8,0000.0,0001.06,0000.48,0000.23
2024-03-04 01:25:00,SystemResetWarning,0816.1,5.00,000.00,018.6,017.9,000.0,026.9,020.2,14.8,0000.0,0001.00,0000.47,0000.24
2024-03-04 01:26:00,SystemResetWarning,0816.1,5.00,000.00,018.6,017.9,000.0,026.9,020.2,15.0,0000.0,0001.20,0000.50,0000.24
2024-03-04 01:27:00,SystemResetWarning,0816.2,5.00,000.00,018.6,017.9,000.0,026.9,020.2,15.0,0000.0,0001.32,0000.55,0000.24
2024-03-04 01:28:00,SystemResetWarning,0816.2,5.00,000.00,018.6,017.9,000.0,026.9,020.2,15.1,0000.0,0001.40,0000.58,0000.25
2024-03-04 01:29:00,SystemResetWarning,0816.2,5.01,000.00,018.6,017.9,000.0,026.9,020.2,15.1,0000.0,0001.52,0000.60,0000.25
2024-03-04 01:30:00,SystemResetWarning,0816.3,5.00,000.00,018.6,017.9,000.0,026.9,020.2,15.1,0000.0,0001.61,0000.62,0000.25
2024-03-04 01:31:00,SystemResetWarning,0816.4,5.01,000.00,018.6,017.9,000.0,026.9,020.2,15.2,0000.0,0001.63,0000.64,0000.24
2024-03-04 01:32:00,SystemResetWarning,0816.5,5.00,000.00,018.6,017.9,000.0,026.9,020.2,15.2,0000.0,0001.97,0000.65,0000.25
2024-03-04 01:33:00,SystemResetWarning,0816.5,5.00,000.00,018.6,017.9,000.0,026.9,020.3,15.1,0000.0,0003.26,0000.66,0000.24
2024-03-04 01:34:00,SystemResetWarning,0816.5,5.00,000.00,018.6,017.9,000.0,026.9,020.2,15.2,0000.0,0004.59,0000.68,0000.24
2024-03-04 01:35:00,SystemResetWarning,0816.5,4.99,000.00,018.6,018.0,000.0,026.9,020.2,15.2,0000.0,0005.03,0000.72,0000.24
2024-03-04 01:36:00,SystemResetWarning,0816.5,5.00,000.00,018.6,018.0,000.0,026.9,020.2,15.1,0000.0,0005.34,0000.75,0000.23
2024-03-04 01:37:00,SystemResetWarning,0816.5,5.00,000.00,018.6,018.0,000.0,026.9,020.2,15.1,0000.0,0005.30,0000.76,0000.24
2024-03-04 01:38:00,SystemResetWarning,0816.4,5.00,000.00,018.6,018.0,000.0,026.9,020.2,15.2,0000.0,0005.32,0000.76,0000.25
2024-03-04 01:39:00,SystemResetWarning,0816.4,5.00,000.00,018.6,018.0,000.0,026.9,020.2,15.3,0000.0,0005.26,0000.73,0000.25
2024-03-04 01:40:00,SystemResetWarning,0816.4,5.00,000.00,018.6,018.0,000.0,026.9,020.2,15.4,0000.0,0005.28,0000.77,0000.26
2024-03-04 01:41:00,SystemResetWarning,0816.4,5.00,000.00,018.6,018.0,000.0,026.9,020.3,15.3,0000.0,0005.50,0000.78,0000.26
2024-03-04 01:42:00,SystemResetWarning,0816.4,5.01,000.00,018.6,018.0,000.0,026.9,020.3,15.4,0000.0,0005.86,0000.77,0000.26
2024-03-04 01:43:00,SystemResetWarning,0816.5,5.01,000.00,018.6,018.0,000.0,026.9,020.2,15.4,0000.0,0005.90,0000.75,0000.26
2024-03-04 01:44:00,SystemResetWarning,0816.5,5.00,000.00,018.7,018.0,000.0,026.9,020.2,15.5,0000.0,0004.61,0000.76,0000.27
2024-03-04 01:45:00,SystemResetWarning,0816.6,4.99,000.00,018.7,018.0,000.0,026.9,020.3,15.5,0000.0,0003.22,0000.78,0000.27
2024-03-04 01:46:00,SystemResetWarning,0816.7,4.99,000.00,018.7,018.0,000.0,026.9,020.2,15.4,0000.0,0002.95,0000.74,0000.28
2024-03-04 01:47:00,SystemResetWarning,0816.8,5.01,000.00,018.7,018.0,000.0,026.9,020.2,15.5,0000.0,0002.59,0000.73,0000.28
2024-03-04 01:48:00,SystemResetWarning,0816.9,5.01,000.00,018.7,018.0,000.0,026.9,020.2,15.6,0000.0,0002.55,0000.71,0000.28
2024-03-04 01:49:00,SystemResetWarning,0816.9,5.00,000.00,018.7,018.0,000.0,026.9,020.3,15.7,0000.0,0002.52,0000.69,0000.27
2024-03-04 01:50:00,SystemResetWarning,0817.0,5.00,000.00,018.7,018.0,000.0,026.9,020.3,15.9,0000.0,0002.60,0000.71,0000.26
2024-03-04 01:51:00,SystemResetWarning,0817.1,4.99,000.00,018.7,018.0,000.0,026.9,020.3,16.0,0000.0,0002.68,0000.68,0000.26
2024-03-04 01:52:00,SystemResetWarning,0817.0,5.00,000.00,018.7,018.0,000.0,027.0,020.3,15.8,0000.0,0003.97,0000.65,0000.26
2024-03-04 01:53:00,SystemResetWarning,0817.0,5.00,000.00,018.7,018.0,000.0,027.0,020.3,15.8,0000.0,0004.56,0000.66,0000.26
2024-03-04 01:54:00,SystemResetWarning,0817.0,5.01,000.00,018.7,018.0,000.0,027.0,020.3,15.9,0000.0,0004.42,0000.64,0000.27
2024-03-04 01:55:00,SystemResetWarning,0816.9,5.01,000.00,018.7,018.0,000.0,027.0,020.4,16.0,0000.0,0004.44,0000.62,0000.27
2024-03-04 01:56:00,SystemResetWarning,0816.9,5.00,000.00,018.7,018.0,000.0,027.0,020.4,16.0,0000.0,0004.41,0000.58,0000.27
2024-03-04 01:57:00,SystemResetWarning,0816.9,5.00,000.00,018.7,018.0,000.0,027.0,020.4,16.1,0000.0,0004.34,0000.56,0000.28
2024-03-04 01:58:00,SystemResetWarning,0817.0,5.00,000.00,018.7,018.0,000.0,027.0,020.4,16.2,0000.0,0004.40,0000.58,0000.29
2024-03-04 01:59:00,SystemResetWarning,0817.2,4.99,000.00,018.7,018.0,000.0,027.0,020.4,16.4,0000.0,0004.53,0000.59,0000.29
